Location: Unspecified
(0.0000°N, 0.0000°E)
Time: 21:14:10
(UTC+00:00)

AO-85 - Pass Details

Date: 30 November 2021
Orbit: 521 x 762 km, 64.8° (Epoch: 12 March)

Event Time Altitude Azimuth Distance (km) Brightness Sun altitude
Exits shadow 04:33:02 19° 343° (NNW) 1,525 ? -17.5°
Maximum altitude 04:36:19 79° 67° (ENE) 635 ? -16.8°
Drops below altitude 10° 04:40:38 10° 155° (SSE) 1,916 ? -15.8°
Sets 04:42:48 0° 156° (SSE) 2,783 ? -15.3°
